H1 CPF 2 NER 2024 2 29 9 060 01 glonass134 H2 1407501 9134 40315 2024 2 29 0 0 0 2024 3 3 23 45 0 900 1 1 0 0 0 1 H9 10 0 60369 0.00000 0 -15222600.458 -18282250.506 9107930.313 10 0 60369 900.00000 0 -15771241.742 -19047040.230 6100791.168 10 0 60369 1800.00000 0 -16157013.386 -19460211.389 2974611.468 10 0 60369 2700.00000 0 -16328911.315 -19540095.276 -209628.972 10 0 60369 3600.00000 0 -16242380.127 -19316421.066 -3389773.928 10 0 60369 4500.00000 0 -15861402.583 -18828884.773 -6503723.777 10 0 60369 5400.00000 0 -15160240.243 -18125308.928 -9490669.189 10 0 60369 6300.00000 0 -14124749.167 -17259472.569 -12292299.119 10 0 60369 7200.00000 0 -12753213.050 -16288705.539 -14853957.299 10 0 60369 8100.00000 0 -11056657.254 -15271351.154 -17125722.775 10 0 60369 9000.00000 0 -9058629.803 -14264206.799 -19063392.026 10 0 60369 9900.00000 0 -6794458.530 -13320052.463 -20629342.669 10 0 60369 10800.00000 0 -4310016.092 -12485372.845 -21793261.828 10 0 60369 11700.00000 0 -1660045.483 -11798369.656 -22532725.433 10 0 60369 12600.00000 0 1093882.883 -11287347.651 -22833618.244 10 0 60369 13500.00000 0 3885696.279 -10969541.315 -22690387.873 10 0 60369 14400.00000 0 6647329.440 -10850429.913 -22106129.643 10 0 60369 15300.00000 0 9311314.307 -10923567.591 -21092502.448 10 0 60369 16200.00000 0 11813342.466 -11170933.296 -19669479.090 10 0 60369 17100.00000 0 14094694.801 -11563783.459 -17864937.559 10 0 60369 18000.00000 0 16104438.982 -12063969.452 -15714102.584 10 0 60369 18900.00000 0 17801305.589 -12625662.716 -13258849.336 10 0 60369 19800.00000 0 19155167.366 -13197413.797 -10546883.469 10 0 60369 20700.00000 0 20148062.688 -13724458.077 -7630813.744 10 0 60369 21600.00000 0 20774723.366 -14151171.147 -4567135.186 10 0 60369 22500.00000 0 21042587.252 -14423570.963 -1415142.104 10 0 60369 23400.00000 0 20971297.280 -14491762.329 1764208.583 10 0 60369 24300.00000 0 20591709.516 -14312221.883 4909462.606 10 0 60369 25200.00000 0 19944452.727 -13849828.544 7959840.796 10 0 60369 26100.00000 0 19078100.145 -13079554.922 10856397.235 10 0 60369 27000.00000 0 18047029.732 -11987749.114 13543142.166 10 0 60369 27900.00000 0 16909061.805 -10572953.062 15968109.344 10 0 60369 28800.00000 0 15722971.786 -8846222.459 18084348.545 10 0 60369 29700.00000 0 14545980.882 -6830933.438 19850825.320 10 0 60369 30600.00000 0 13431328.379 -4562082.016 21233211.562 10 0 60369 31500.00000 0 12426026.014 -2085102.956 22204552.243 10 0 60369 32400.00000 0 11568887.624 545745.774 22745795.624 10 0 60369 33300.00000 0 10888916.255 3269368.895 22846176.414 10 0 60369 34200.00000 0 10404116.568 6020110.543 22503443.607 10 0 60369 35100.00000 0 10120783.174 8730229.985 21723927.293 10 0 60369 36000.00000 0 10033296.075 11332475.672 20522441.393 10 0 60369 36900.00000 0 10124433.530 13762652.076 18922022.150 10 0 60369 37800.00000 0 10366191.049 15962073.265 16953505.256 10 0 60369 38700.00000 0 10721073.778 17879800.929 14654947.673 10 0 60369 39600.00000 0 11143809.246 19474572.716 12070903.524 10 0 60369 40500.00000 0 11583409.011 20716339.022 9251566.667 10 0 60369 41400.00000 0 11985492.218 21587342.388 6251795.800 10 0 60369 42300.00000 0 12294772.107 22082692.651 3130040.945 10 0 60369 43200.00000 0 12457598.723 22210412.480 -52807.188 10 0 60369 44100.00000 0 12424448.038 21990950.622 -3234621.329 10 0 60369 45000.00000 0 12152249.441 21456183.328 -6353269.922 10 0 60369 45900.00000 0 11606450.233 20647946.719 -9347851.395 10 0 60369 46800.00000 0 10762727.070 19616163.439 -12159904.032 10 0 60369 47700.00000 0 9608269.555 18416644.539 -14734565.602 10 0 60369 48600.00000 0 8142579.982 17108661.689 -17021658.204 10 0 60369 49500.00000 0 6377754.283 15752394.397 -18976675.760 10 0 60369 50400.00000 0 4338231.890 14406361.992 -20561654.019 10 0 60369 51300.00000 0 2060025.149 13124950.158 -21745905.958 10 0 60369 52200.00000 0 -410538.798 11956137.006 -22506608.720 10 0 60369 53100.00000 0 -3018510.078 10939514.450 -22829231.658 10 0 60369 54000.00000 0 -5702370.445 10104687.258 -22707798.615 10 0 60369 54900.00000 0 -8396363.446 9470115.494 -22144981.099 10 0 60369 55800.00000 0 -11033002.813 9042446.807 -21152022.355 10 0 60369 56700.00000 0 -13545654.743 8816364.043 -19748495.687 10 0 60369 57600.00000 0 -15871087.233 8774951.845 -17961903.326 10 0 60369 58500.00000 0 -17951881.616 8890564.213 -15827125.062 10 0 60369 59400.00000 0 -19738607.712 9126154.257 -13385728.392 10 0 60369 60300.00000 0 -21191674.209 9437008.381 -10685154.262 10 0 60369 61200.00000 0 -22282779.628 9772810.714 -7777794.540 10 0 60369 62100.00000 0 -22995905.881 10079950.297 -4719979.096 10 0 60369 63000.00000 0 -23327815.416 10303973.842 -1570891.758 10 0 60369 63900.00000 0 -23288033.272 10392081.281 1608564.453 10 0 60369 64800.00000 0 -22898316.533 10295559.810 4756931.731 10 0 60369 65700.00000 0 -22191634.474 9972054.952 7813370.118 10 0 60369 66600.00000 0 -21210702.601 9387583.971 10718816.884 10 0 60369 67500.00000 0 -20006131.808 8518207.670 13417111.660 10 0 60369 68400.00000 0 -18634269.421 7351290.545 15856066.957 10 0 60369 69300.00000 0 -17154821.296 5886296.055 17988464.770 10 0 60369 70200.00000 0 -15628352.974 4135082.632 19772961.224 10 0 60369 71100.00000 0 -14113772.780 2121686.262 21174882.828 10 0 60369 72000.00000 0 -12665900.582 -118403.652 22166899.543 10 0 60369 72900.00000 0 -11333222.566 -2539447.849 22729561.938 10 0 60369 73800.00000 0 -10155925.046 -5087093.275 22851691.734 10 0 60369 74700.00000 0 -9164289.219 -7700376.771 22530617.419 10 0 60369 75600.00000 0 -8377514.301 -10314016.075 21772249.042 10 0 60369 76500.00000 0 -7803019.090 -12860895.478 20590989.041 10 0 60369 77400.00000 0 -7436252.525 -15274644.589 19009478.760 10 0 60369 78300.00000 0 -7261022.618 -17492204.023 17058183.397 10 0 60369 79200.00000 0 -7250331.527 -19456271.349 14774821.283 10 0 60369 80100.00000 0 -7367682.903 -21117524.719 12203646.685 10 0 60369 81000.00000 0 -7568807.305 -22436530.056 9394598.609 10 0 60369 81900.00000 0 -7803733.103 -23385250.353 6402331.271 10 0 60369 82800.00000 0 -8019114.857 -23948091.992 3285144.962 10 0 60369 83700.00000 0 -8160719.394 -24122442.457 103838.649 10 0 60369 84600.00000 0 -8175962.379 -23918675.579 -3079492.111 10 0 60369 85500.00000 0 -8016385.415 -23359623.372 -6202686.702 10 0 60370 0.00000 0 -7639966.019 -22479536.898 -9204754.007 10 0 60370 900.00000 0 -7013159.531 -21322580.235 -12027085.188 10 0 60370 1800.00000 0 -6112584.491 -19940923.779 -14614614.766 10 0 60370 2700.00000 0 -4926277.409 -18392517.648 -16916910.804 10 0 60370 3600.00000 0 -3454462.811 -16738642.289 -18889167.389 10 0 60370 4500.00000 0 -1709805.065 -15041341.148 -20493080.836 10 0 60370 5400.00000 0 282868.809 -13360845.239 -21697592.044 10 0 60370 6300.00000 0 2487363.402 -11753099.029 -22479480.992 10 0 60370 7200.00000 0 4857392.215 -10267491.957 -22823802.772 10 0 60370 8100.00000 0 7338283.626 -8944890.315 -22724158.125 10 0 60370 9000.00000 0 9869043.397 -7816050.735 -22182794.932 10 0 60370 9900.00000 0 12384686.956 -6900479.754 -21210540.551 10 0 60370 10800.00000 0 14818743.960 -6205784.678 -19826568.123 10 0 60370 11700.00000 0 17105831.055 -5727540.030 -18058003.050 10 0 60370 12600.00000 0 19184186.396 -5449672.186 -15939378.697 10 0 60370 13500.00000 0 20998061.678 -5345343.253 -13511952.983 10 0 60370 14400.00000 0 22499873.808 -5378294.611 -10822899.800 10 0 60370 15300.00000 0 23652028.533 -5504591.763 -7924391.358 10 0 60370 16200.00000 0 24428342.286 -5674695.870 -4872589.242 10 0 60370 17100.00000 0 24815005.108 -5835774.165 -1726563.375 10 0 60370 18000.00000 0 24811046.480 -5934151.990 1452840.723 10 0 60370 18900.00000 0 24428286.323 -5917803.673 4604165.358 10 0 60370 19800.00000 0 23690774.379 -5738778.136 7666513.350 10 0 60370 20700.00000 0 22633742.073 -5355458.052 10580708.525 10 0 60370 21600.00000 0 21302110.650 -4734558.259 13290422.968 10 0 60370 22500.00000 0 19748617.370 -3852779.935 15743250.663 10 0 60370 23400.00000 0 18031636.948 -2698051.017 17891708.128 10 0 60370 24300.00000 0 16212787.727 -1270300.191 19694143.972 10 0 60370 25200.00000 0 14354420.799 418269.333 21115540.810 10 0 60370 26100.00000 0 12517095.113 2343419.766 22128194.685 10 0 60370 27000.00000 0 10757142.312 4469625.001 22712259.150 10 0 60370 27900.00000 0 9124421.631 6751295.191 22856143.215 10 0 60370 28800.00000 0 7660357.757 9134431.806 22556754.709 10 0 60370 29700.00000 0 6396343.325 11558647.485 21819583.073 10 0 60370 30600.00000 0 5352573.090 13959469.435 20658618.267 10 0 60370 31500.00000 0 4537359.352 16270832.747 19096105.339 10 0 60370 32400.00000 0 3946958.435 18427661.258 17162137.227 10 0 60370 33300.00000 0 3565916.801 20368429.034 14894091.516 10 0 60370 34200.00000 0 3367923.483 22037595.250 12335920.205 10 0 60370 35100.00000 0 3317133.843 23387809.715 9537304.774 10 0 60370 36000.00000 0 3369909.278 24381795.055 6552692.069 10 0 60370 36900.00000 0 3476899.098 24993824.670 3440229.589 10 0 60370 37800.00000 0 3585375.595 25210732.379 260621.409 10 0 60370 38700.00000 0 3641721.709 25032409.543 -2924071.804 10 0 60370 39600.00000 0 3593963.647 24471767.442 -6051663.480 10 0 60370 40500.00000 0 3394238.439 23554165.915 -9061076.422 10 0 60370 41400.00000 0 3001089.021 22316332.500 -11893556.290 10 0 60370 42300.00000 0 2381486.907 20804818.518 -14493837.324 10 0 60370 43200.00000 0 1512494.445 19074058.661 -16811235.630 10 0 60370 44100.00000 0 382494.555 17184117.651 -18800647.216 10 0 60370 45000.00000 0 -1008065.199 15198220.799 -20423430.391 10 0 60370 45900.00000 0 -2646446.083 13180174.057 -21648155.096 10 0 60370 46800.00000 0 -4507918.688 11191783.257 -22451204.954 10 0 60370 47700.00000 0 -6556577.242 9290381.481 -22817221.282 10 0 60370 48600.00000 0 -8746632.743 7526568.090 -22739381.846 10 0 60370 49500.00000 0 -11024129.853 5942253.066 -22219510.655 10 0 60370 50400.00000 0 -13329014.869 4569086.801 -21268018.500 10 0 60370 51300.00000 0 -15597467.893 3427338.536 -19903677.254 10 0 60370 52200.00000 0 -17764401.706 2525267.460 -18153233.965 10 0 60370 53100.00000 0 -19766023.460 1859009.638 -16050873.684 10 0 60370 54000.00000 0 -21542353.203 1412982.323 -13637542.556 10 0 60370 54900.00000 0 -23039595.527 1160785.781 -10960145.019 10 0 60370 55800.00000 0 -24212267.063 1066562.352 -8070631.101 10 0 60370 56700.00000 0 -25024992.951 1086753.751 -5024991.500 10 0 60370 57600.00000 0 -25453899.276 1172181.572 -1882179.627 10 0 60370 58500.00000 0 -25487545.183 1270362.900 1297019.103 10 0 60370 59400.00000 0 -25127357.363 1327963.653 4451149.691 10 0 60370 60300.00000 0 -24387549.926 1293286.856 7519260.291 10 0 60370 61200.00000 0 -23294533.740 1118691.924 10442063.793 10 0 60370 62100.00000 0 -21885839.962 762843.977 13163067.167 10 0 60370 63000.00000 0 -20208602.226 192699.296 15629648.174 10 0 60370 63900.00000 0 -18317659.790 -614856.203 17794059.988 10 0 60370 64800.00000 0 -16273359.246 -1671784.435 19614345.582 10 0 60370 65700.00000 0 -14139144.612 -2978140.734 21055145.262 10 0 60370 66600.00000 0 -11979034.286 -4521820.700 22088382.397 10 0 60370 67500.00000 0 -9855088.069 -6278821.143 22693814.401 10 0 60370 68400.00000 0 -7824968.080 -8214007.038 22859438.081 10 0 60370 69300.00000 0 -5939693.953 -10282355.561 22581740.758 10 0 60370 70200.00000 0 -4241685.137 -12430628.581 21865791.073 10 0 60370 71100.00000 0 -2763171.764 -14599406.875 20725166.006 10 0 60370 72000.00000 0 -1525040.835 -16725403.853 19181713.502 10 0 60370 72900.00000 0 -536166.761 -18743964.134 17265153.135 10 0 60370 73800.00000 0 206744.638 -20591643.764 15012520.364 10 0 60370 74700.00000 0 718790.989 -22208764.363 12467463.268 10 0 60370 75600.00000 0 1026001.491 -23541833.594 9679403.896 10 0 60370 76500.00000 0 1163994.452 -24545729.105 6702579.607 10 0 60370 77400.00000 0 1176220.914 -25185552.245 3594982.810 10 0 60370 78300.00000 0 1111869.279 -25438071.517 417220.234 10 0 60370 79200.00000 0 1023520.971 -25292692.819 -2768684.903 10 0 60370 80100.00000 0 964658.497 -24751913.848 -5900522.730 10 0 60370 81000.00000 0 987133.982 -23831242.276 -8917132.440 10 0 60370 81900.00000 0 1138708.273 -22558580.629 -11759617.500 10 0 60370 82800.00000 0 1460767.647 -20973104.073 -14372514.358 10 0 60370 83700.00000 0 1986317.364 -19123679.307 -16704889.859 10 0 60370 84600.00000 0 2738339.036 -17066892.590 -18711344.485 10 0 60370 85500.00000 0 3728582.670 -14864771.588 -20352900.861 10 0 60371 0.00000 0 4956845.044 -12582298.703 -21597759.878 10 0 60371 900.00000 0 6410765.636 -10284820.394 -22421910.657 10 0 60371 1800.00000 0 8066146.574 -8035465.107 -22809581.829 10 0 60371 2700.00000 0 9887784.494 -5892674.012 -22753528.978 10 0 60371 3600.00000 0 11830776.818 -3907950.228 -22255152.613 10 0 60371 4500.00000 0 13842247.273 -2123918.011 -21324446.949 10 0 60371 5400.00000 0 15863417.497 -572770.973 -19979782.192 10 0 60371 6300.00000 0 17831937.621 724828.617 -18247526.264 10 0 60371 7200.00000 0 19684378.307 1760356.578 -16161514.749 10 0 60371 8100.00000 0 21358780.580 2537517.585 -13762380.463 10 0 60371 9000.00000 0 22797157.816 3071819.363 -11096756.430 10 0 60371 9900.00000 0 23947846.636 3389651.034 -8216368.118 10 0 60371 10800.00000 0 24767610.078 3526906.664 -5177032.612 10 0 60371 11700.00000 0 25223406.870 3527213.565 -2037583.767 10 0 60371 12600.00000 0 25293754.563 3439840.843 1141256.348 10 0 60371 13500.00000 0 24969631.060 3317376.561 4298038.771 10 0 60371 14400.00000 0 24254878.034 3213271.067 7371760.312 10 0 60371 15300.00000 0 23166090.080 3179349.243 10303026.125 10 0 60371 16200.00000 0 21731994.358 3263395.528 13035181.071 10 0 60371 17100.00000 0 19992346.182 3506912.428 15515389.443 10 0 60371 18000.00000 0 17996385.584 3943146.105 17695643.535 10 0 60371 18900.00000 0 15800917.647 4595461.734 19533682.856 10 0 60371 19800.00000 0 13468094.658 5476137.165 20993807.263 10 0 60371 20700.00000 0 11062990.259 6585626.474 22047568.998 10 0 60371 21600.00000 0 8651064.374 7912325.951 22674330.547 10 0 60371 22500.00000 0 6295622.351 9432854.659 22861677.354 10 0 60371 23400.00000 0 4055372.360 11112840.650 22605676.677 10 0 60371 24300.00000 0 1982181.534 12908183.030 21910976.362 10 0 60371 25200.00000 0 119123.641 14766740.271 20790739.951 10 0 60371 26100.00000 0 -1501100.308 16630376.956 19266417.361 10 0 60371 27000.00000 0 -2857302.148 18437285.688 17367353.423 10 0 60371 27900.00000 0 -3940458.811 20124488.536 15130239.667 10 0 60371 28800.00000 0 -4753848.357 21630413.858 12598418.077 10 0 60371 29700.00000 0 -5312663.103 22897440.201 9821048.782 10 0 60371 30600.00000 0 -5643115.392 23874299.343 6852156.890 10 0 60371 31500.00000 0 -5781073.434 24518235.652 3749576.747 10 0 60371 32400.00000 0 -5770285.181 24796828.647 573814.621 10 0 60371 33300.00000 0 -5660266.420 24689399.635 -2613146.931 10 0 60371 34200.00000 0 -5503944.158 24187940.881 -5749077.956 10 0 60371 35100.00000 0 -5355157.457 23297526.390 -8772737.171 10 0 60371 36000.00000 0 -5266124.222 22036185.804 -11625088.837 10 0 60371 36900.00000 0 -5284984.068 20434246.354 -14250474.363 10 0 60371 37800.00000 0 -5453523.939 18533170.910 -16597713.813 10 0 60371 38700.00000 0 -5805185.000 16383941.997 -18621114.301 10 0 60371 39600.00000 0 -6363436.736 14045061.117 -20281364.609 10 0 60371 40500.00000 0 -7140587.937 11580248.959 -21546298.267 10 0 60371 41400.00000 0 -8137085.011 9055944.372 -22391510.610 10 0 60371 42300.00000 0 -9341326.837 6538707.960 -22800818.648 10 0 60371 43200.00000 0 -10730003.107 4092639.390 -22766556.204 10 0 60371 44100.00000 0 -12268940.783 1776916.072 -22289700.286 10 0 60371 45000.00000 0 -13914421.870 -356445.037 -21379828.069 10 0 60371 45900.00000 0 -15614916.086 -2264510.950 -20054907.172 10 0 60371 46800.00000 0 -17313154.924 -3914963.712 -18340925.017 10 0 60371 47700.00000 0 -18948459.764 -5287178.114 -16271365.924 10 0 60371 48600.00000 0 -20459226.539 -6372804.325 -13886547.247 10 0 60371 49500.00000 0 -21785463.426 -7175834.462 -11232828.179 10 0 60371 50400.00000 0 -22871276.256 -7712153.436 -8361707.039 10 0 60371 51300.00000 0 -23667198.872 -8008595.651 -5328824.573 10 0 60371 52200.00000 0 -24132272.366 -8101549.311 -2192892.303 10 0 60371 53100.00000 0 -24235787.702 -8035168.445 985433.865 10 0 60371 54000.00000 0 -23958620.198 -7859268.596 4144713.814 10 0 60371 54900.00000 0 -23294101.194 -7626994.838 7223895.808 10 0 60371 55800.00000 0 -22248391.154 -7392359.806 10163480.007 10 0 60371 56700.00000 0 -20840338.821 -7207754.562 12906651.812 10 0 60371 57600.00000 0 -19100831.870 -7121536.002 15400364.539 10 0 60371 58500.00000 0 -17071665.181 -7175791.365 17596351.882 10 0 60371 59400.00000 0 -14803972.335 -7404373.105 19452051.876 10 0 60371 60300.00000 0 -12356283.626 -7831286.435 20931425.590 10 0 60371 61200.00000 0 -9792289.117 -8469497.621 22005655.411 10 0 60371 62100.00000 0 -7178397.310 -9320214.054 22653709.778 10 0 60371 63000.00000 0 -4581188.563 -10372668.001 22862763.266 10 0 60371 63900.00000 0 -2064867.043 -11604415.442 22628463.191 10 0 60371 64800.00000 0 311184.479 -12982140.195 21955036.397 10 0 60371 65700.00000 0 2494646.358 -14462932.611 20855232.464 10 0 60371 66600.00000 0 4442207.390 -15995992.126 19350102.484 10 0 60371 67500.00000 0 6121132.481 -17524684.799 17468615.463 10 0 60371 68400.00000 0 7510386.583 -18988871.446 15247117.650 10 0 60371 69300.00000 0 8601266.886 -20327409.732 12728643.292 10 0 60371 70200.00000 0 9397515.758 -21480725.232 9962088.670 10 0 60371 71100.00000 0 9914908.773 -22393342.648 7001264.445 10 0 60371 72000.00000 0 10180334.637 -23016269.007 3903844.467 10 0 60371 72900.00000 0 10230405.835 -23309126.314 730231.917 10 0 60371 73800.00000 0 10109659.367 -23241941.250 -2457634.063 10 0 60371 74700.00000 0 9868425.020 -22796513.887 -5597506.257 10 0 60371 75600.00000 0 9560453.418 -21967305.450 -8628065.758 10 0 60371 76500.00000 0 9240406.712 -20761805.932 -11490140.430 10 0 60371 77400.00000 0 8961320.900 -19200365.029 -14127879.381 10 0 60371 78300.00000 0 8772149.860 -17315493.234 -16489858.499 10 0 60371 79200.00000 0 8715497.419 -15150662.883 -18530093.951 10 0 60371 80100.00000 0 8825635.215 -12758660.564 -20208942.824 10 0 60371 81000.00000 0 9126891.285 -10199561.330 -21493873.039 10 0 60371 81900.00000 0 9632477.847 -7538410.993 -22360087.832 10 0 60371 82800.00000 0 10343807.444 -4842714.735 -22790993.517 10 0 60371 83700.00000 0 11250325.384 -2179837.711 -22778502.808 10 0 60371 84600.00000 0 12329864.248 385573.703 -22323169.459 10 0 60371 85500.00000 0 13549504.046 2794043.043 -21434153.483 10 0 60372 0.00000 0 14866900.273 4993486.303 -20129019.567 10 0 60372 900.00000 0 16232023.495 6941116.500 -18433373.582 10 0 60372 1800.00000 0 17589234.757 8604950.632 -16380347.544 10 0 60372 2700.00000 0 18879611.574 9964863.216 -14009941.860 10 0 60372 3600.00000 0 20043425.238 11013142.714 -11368240.084 10 0 60372 4500.00000 0 21022666.720 11754532.059 -8506511.234 10 0 60372 5400.00000 0 21763516.039 12205754.348 -5480217.274 10 0 60372 6300.00000 0 22218652.780 12394546.110 -2347944.683 10 0 60372 7200.00000 0 22349312.242 12358240.556 829719.678 10 0 60372 8100.00000 0 22127002.352 12141961.532 3991347.523 10 0 60372 9000.00000 0 21534810.554 11796504.559 7075841.551 10 0 60372 9900.00000 0 20568246.706 11375993.895 10023599.839 10 0 60372 10800.00000 0 19235586.987 10935413.501 12777651.098 10 0 60372 11700.00000 0 17557704.104 10528114.739 15284740.260 10 0 60372 12600.00000 0 15567389.970 10203404.477 17496344.810 10 0 60372 13500.00000 0 13308197.529 10004313.929 19369603.497 10 0 60372 14400.00000 0 10832847.938 9965641.238 20868140.555 10 0 60372 15300.00000 0 8201266.933 10112349.763 21962770.241 10 0 60372 16200.00000 0 5478329.424 10458389.654 22632068.403 10 0 60372 17100.00000 0 2731403.334 11005993.202 22862799.889 10 0 60372 18000.00000 0 27792.341 11745475.212 22650192.860 10 0 60372 18900.00000 0 -2567818.279 12655548.984 21998053.515 10 0 60372 19800.00000 0 -4995808.075 13704147.238 20918717.386 10 0 60372 20700.00000 0 -7203859.116 14849716.214 19432836.150 10 0 60372 21600.00000 0 -9148891.997 16042931.136 17569001.928 10 0 60372 22500.00000 0 -10798618.982 17228763.059 15363214.154 10 0 60372 23400.00000 0 -12132648.539 18348811.582 12858197.412 10 0 60372 24300.00000 0 -13143093.926 19343805.831 10102581.863 10 0 60372 25200.00000 0 -13834659.243 20156168.018 7149961.177 10 0 60372 26100.00000 0 -14224198.464 20732530.247 4057845.958 10 0 60372 27000.00000 0 -14339765.664 21026096.453 886533.387 10 0 60372 27900.00000 0 -14219196.779 20998747.297 -2302083.828 10 0 60372 28800.00000 0 -13908283.728 20622796.458 -5445744.293 10 0 60372 29700.00000 0 -13458619.746 19882321.611 -8483054.553 10 0 60372 30600.00000 0 -12925209.270 18774011.647 -11354709.099 10 0 60372 31500.00000 0 -12363946.044 17307492.845 -14004667.616 10 0 60372 32400.00000 0 -11829068.800 15505119.282 -16381264.489 10 0 60372 33300.00000 0 -11370704.580 13401236.168 -18438227.352 10 0 60372 34200.00000 0 -11032605.558 11040947.538 -20135583.713 10 0 60372 35100.00000 0 -10850176.366 8478440.990 -21440437.659 10 0 60372 36000.00000 0 -10848875.796 5774940.853 -22327601.758 10 0 60372 36900.00000 0 -11043060.148 2996376.651 -22780072.690 10 0 60372 37800.00000 0 -11435316.123 210865.178 -22789342.716 10 0 60372 38700.00000 0 -12016309.944 -2513888.319 -22355542.581 10 0 60372 39600.00000 0 -12765157.302 -5113161.680 -21487414.924 10 0 60372 40500.00000 0 -13650296.718 -7527653.885 -20202120.573 10 0 60372 41400.00000 0 -14630827.834 -9705689.758 -18524883.217 10 0 60372 42300.00000 0 -15658256.918 -11605101.710 -16488480.849 10 0 60372 43200.00000 0 -16678575.216 -13194712.917 -14132595.058 10 0 60372 44100.00000 0 -17634582.332 -14455363.190 -11503031.592 10 0 60372 45000.00000 0 -18468357.025 -15380437.836 -8650827.788 10 0 60372 45900.00000 0 -19123772.170 -15975880.498 -5631264.289 10 0 60372 46800.00000 0 -19548949.131 -16259692.118 -2502799.898 10 0 60372 47700.00000 0 -19698549.609 -16260939.176 674050.277 10 0 60372 48600.00000 0 -19535809.995 -16018314.356 3837872.528 10 0 60372 49500.00000 0 -19034233.949 -15578310.867 6927526.767 10 0 60372 50400.00000 0 -18178873.085 -14993087.271 9883311.762 10 0 60372 51300.00000 0 -16967142.468 -14318112.042 12648102.261 10 0 60372 52200.00000 0 -15409136.634 -13609685.931 15168437.450 10 0 60372 53100.00000 0 -13527432.107 -12922445.015 17395541.070 10 0 60372 54000.00000 0 -11356383.207 -12306948.039 19286254.807 10 0 60372 54900.00000 0 -8940938.473 -11807448.228 20803868.000 10 0 60372 55800.00000 0 -6335024.494 -11459942.305 21918828.366 10 0 60372 56700.00000 0 -3599561.568 -11290578.330 22609320.383 10 0 60372 57600.00000 0 -800190.760 -11314489.473 22861700.024 10 0 60372 58500.00000 0 1995195.968 -11535103.663 22670776.775 10 0 60372 59400.00000 0 4719022.391 -11943959.661 22039936.341 10 0 60372 60300.00000 0 7306586.711 -12521039.332 20981100.018 10 0 60372 61200.00000 0 9698507.125 -13235604.516 19514519.581 10 0 60372 62100.00000 0 11842953.031 -14047505.641 17668409.459 10 0 60372 63000.00000 0 13697568.772 -14908909.177 15478421.151 10 0 60372 63900.00000 0 15231008.817 -15766372.767 12986968.093 10 0 60372 64800.00000 0 16424019.104 -16563181.439 10242412.487 10 0 60372 65700.00000 0 17270017.998 -17241846.424 7298128.799 10 0 60372 66600.00000 0 17775151.273 -17746660.158 4211461.825 10 0 60372 67500.00000 0 17957818.082 -18026197.919 1042599.898 10 0 60372 68400.00000 0 17847687.648 -18035658.030 -2146613.765 10 0 60372 69300.00000 0 17484248.626 -17738939.046 -5293906.758 10 0 60372 70200.00000 0 16914953.589 -17110363.330 -8337814.263 10 0 60372 71100.00000 0 16193038.855 -16135971.662 -11218900.496 10 0 60372 72000.00000 0 15375114.134 -14814332.084 -13880938.675 10 0 60372 72900.00000 0 14518626.387 -13156827.426 -16272024.442 10 0 60372 73800.00000 0 13679307.559 -11187408.622 -18345599.387 10 0 60372 74700.00000 0 12908716.165 -8941824.187 -20061363.636 10 0 60372 75600.00000 0 12251978.064 -6466358.719 -21386059.296 10 0 60372 76500.00000 0 11745822.594 -3816134.239 -22294109.729 10 0 60372 77400.00000 0 11416996.869 -1053046.577 -22768103.041 10 0 60372 78300.00000 0 11281124.302 1756575.981 -22799111.682 10 0 60372 79200.00000 0 11342053.954 4544493.442 -22386843.616 10 0 60372 80100.00000 0 11591726.192 7243148.973 -21539623.958 10 0 60372 81000.00000 0 12010558.084 9788230.283 -20274209.288 10 0 60372 81900.00000 0 12568330.159 12121092.073 -18615440.011 10 0 60372 82800.00000 0 13225535.187 14190940.449 -16595739.010 10 0 60372 83700.00000 0 13935130.679 15956690.690 -14254467.551 10 0 60372 84600.00000 0 14644620.255 17388423.750 -11637151.754 10 0 60372 85500.00000 0 15298375.841 18468383.658 -8794595.160 99